Weather History for Glasgow, KY

Change the Weather History Date:

Tuesday, February 5, 2013

  Actual Average Record
Temperature  
Mean Temperature 45 °F -  
Max Temperature 56 °F 45 °F 65 °F (1962)
Min Temperature 34 °F 26 °F 5 °F (1966)
Degree Days  
Heating Degree Days 20    
Moisture  
Dew Point 20 °F    
Average Humidity 39    
Maximum Humidity 55    
Minimum Humidity 11    
Precipitation  
Precipitation 0.01 in - - ()
Sea Level Pressure  
Sea Level Pressure 29.96 in    
Wind  
Wind Speed 5 mph (WSW)    
Max Wind Speed 13 mph    
Max Gust Speed 17 mph    
Visibility 10 miles    
Events      
Averages and records for this station are not official NWS values.
T = Trace of Precipitation, MM = Missing Value Source: NWS Daily Summary

Daily Weather History Graph

Daily Weather History Graph

Search for Another Location

Airport:

Trip Planner

Search our weather history database for the weather conditions in past years. The results will help you decide how hot, cold, wet, or windy it might be!

Date:

Astronomy

Feb. 05, 2013 Rise Set
Actual Time 6:42 AM CST 5:13 PM CST
Civil Twilight 6:15 AM CST 5:40 PM CST
Nautical Twilight 5:44 AM CST 6:11 PM CST
Astronomical Twilight 5:14 AM CST 6:41 PM CST
Moon 2:21 AM CST (2/5) 12:33 PM CST (2/5)
Length of Visible Light 11h 25m
Length of Day
10h 30m
Waning Crescent, 26% of the Moon is Illuminated
Feb 5
Waning Crescent
Feb 10
New
Feb 17
First Quarter
Feb 25
Full
Mar 4
Last Quarter

Hourly Weather History & Observations

Time (CST) Temp. Windchill Dew Point Humidity Pressure Visibility Wind Dir Wind Speed Gust Speed Precip Events Conditions
12:15 AM 44.6 °F 41.4 °F 25.3 °F 47% 29.91 in 10.0 mi SW 5.8 mph - N/A   Overcast
12:35 AM 44.8 °F 42.4 °F 25.2 °F 46% 29.92 in 10.0 mi SW 4.6 mph - N/A   Overcast
12:55 AM 44.4 °F 42.9 °F 25.3 °F 47% 29.92 in 10.0 mi SW 3.5 mph - N/A   Overcast
1:15 AM 43.9 °F - 25.0 °F 47% 29.91 in 10.0 mi Calm Calm - N/A   Overcast
1:35 AM 43.7 °F 42.1 °F 24.4 °F 47% 29.91 in 10.0 mi WSW 3.5 mph - N/A   Overcast
1:55 AM 43.5 °F 41.9 °F 23.7 °F 46% 29.91 in 10.0 mi SW 3.5 mph - N/A   Overcast
2:15 AM 43.3 °F - 22.8 °F 44% 29.91 in 10.0 mi Calm Calm - N/A   Overcast
2:35 AM 43.2 °F - 22.5 °F 44% 29.90 in 10.0 mi Calm Calm - N/A   Overcast
2:55 AM 43.3 °F 41.7 °F 22.6 °F 44% 29.90 in 10.0 mi WSW 3.5 mph - N/A   Overcast
3:15 AM 43.2 °F 41.5 °F 23.7 °F 46% 29.90 in 10.0 mi WSW 3.5 mph - N/A   Overcast
3:35 AM 43.0 °F 40.3 °F 24.1 °F 47% 29.90 in 10.0 mi SW 4.6 mph - N/A   Overcast
3:55 AM 42.6 °F 40.9 °F 24.6 °F 49% 29.91 in 10.0 mi SW 3.5 mph - N/A   Overcast
4:15 AM 42.4 °F 40.7 °F 24.6 °F 49% 29.91 in 10.0 mi WSW 3.5 mph - N/A   Overcast
4:35 AM 42.8 °F 40.1 °F 24.4 °F 48% 29.91 in 10.0 mi WSW 4.6 mph - N/A   Overcast
4:55 AM 42.8 °F 39.3 °F 25.0 °F 49% 29.91 in 10.0 mi WSW 5.8 mph - N/A   Overcast
5:15 AM 43.0 °F 39.5 °F 25.7 °F 51% 29.91 in 10.0 mi WSW 5.8 mph - N/A   Overcast
5:35 AM 43.0 °F 41.3 °F 26.6 °F 52% 29.91 in 10.0 mi SSW 3.5 mph - N/A   Overcast
5:55 AM 43.2 °F 40.5 °F 26.4 °F 52% 29.91 in 10.0 mi SW 4.6 mph - N/A   Overcast
6:15 AM 43.0 °F 40.3 °F 26.1 °F 51% 29.92 in 10.0 mi WSW 4.6 mph - N/A   Overcast
6:35 AM 42.4 °F 38.8 °F 26.2 °F 53% 29.93 in 10.0 mi WSW 5.8 mph - N/A   Overcast
6:55 AM 42.4 °F - 26.4 °F 53% 29.94 in 10.0 mi Calm Calm - N/A   Overcast
7:15 AM 42.8 °F 39.3 °F 26.6 °F 53% 29.96 in 10.0 mi West 5.8 mph - N/A   Overcast
7:35 AM 42.8 °F 38.6 °F 27.0 °F 54% 29.97 in 10.0 mi West 6.9 mph - N/A   Overcast
7:55 AM 42.8 °F 40.1 °F 27.5 °F 55% 29.97 in 10.0 mi West 4.6 mph - N/A   Overcast
8:15 AM 43.0 °F 40.3 °F 27.5 °F 54% 29.97 in 10.0 mi West 4.6 mph - N/A   Overcast
8:35 AM 43.3 °F 40.7 °F 27.7 °F 54% 29.97 in 10.0 mi WSW 4.6 mph - N/A   Overcast
8:55 AM 44.1 °F 40.1 °F 28.0 °F 53% 29.98 in 10.0 mi WSW 6.9 mph - N/A   Overcast
9:15 AM 44.4 °F 41.2 °F 28.0 °F 53% 29.98 in 10.0 mi West 5.8 mph - N/A   Overcast
9:55 AM 46.0 °F 42.5 °F 27.7 °F 49% 29.99 in 10.0 mi West 6.9 mph - N/A   Overcast
10:15 AM 46.4 °F 41.9 °F 27.7 °F 48% 29.99 in 10.0 mi West 9.2 mph - N/A   Overcast
10:55 AM 47.7 °F - 26.6 °F 44% 30.00 in 10.0 mi WSW 9.2 mph 16.1 mph N/A   Overcast
11:15 AM 47.8 °F - 25.7 °F 42% 30.00 in 10.0 mi West 10.4 mph 16.1 mph N/A   Overcast
11:35 AM 47.8 °F - 24.4 °F 40% 29.98 in 10.0 mi West 9.2 mph - N/A   Scattered Clouds
11:55 AM 48.6 °F - 23.5 °F 37% 29.97 in 10.0 mi West 6.9 mph - N/A   Clear
12:15 PM 49.5 °F - 24.1 °F 37% 29.97 in 10.0 mi West 6.9 mph - N/A   Clear
12:55 PM 52.0 °F - 19.8 °F 28% 29.94 in 10.0 mi WSW 10.4 mph - N/A   Clear
1:15 PM 53.2 °F - 17.2 °F 24% 29.94 in 10.0 mi WSW 12.7 mph - N/A   Clear
1:35 PM 54.1 °F - 14.5 °F 21% 29.93 in 10.0 mi SSW 9.2 mph - N/A   Clear
1:55 PM 54.3 °F - 13.8 °F 20% 29.93 in 10.0 mi SSW 10.4 mph - N/A   Clear
2:15 PM 54.9 °F - 11.3 °F 18% 29.93 in 10.0 mi WSW 11.5 mph 16.1 mph N/A   Clear
2:35 PM 55.6 °F - 8.6 °F 15% 29.93 in 10.0 mi WSW 10.4 mph - N/A   Clear
2:55 PM 56.7 °F - 5.5 °F 13% 29.93 in 10.0 mi WSW 11.5 mph 17.3 mph N/A   Clear
3:15 PM 56.1 °F - 1.6 °F 11% 29.93 in 10.0 mi WSW 12.7 mph 16.1 mph N/A   Clear
3:55 PM 56.1 °F - 2.1 °F 11% 29.92 in 10.0 mi WSW 8.1 mph - N/A   Clear
4:15 PM 55.9 °F - 1.8 °F 11% 29.92 in 10.0 mi WSW 10.4 mph - N/A   Clear
4:55 PM 54.1 °F - 4.5 °F 13% 29.93 in 10.0 mi WSW 9.2 mph - N/A   Clear
5:15 PM 52.3 °F - 7.7 °F 17% 29.93 in 10.0 mi WSW 5.8 mph - N/A   Clear
5:35 PM 50.4 °F - 10.4 °F 20% 29.93 in 10.0 mi WSW 4.6 mph - N/A   Clear
5:55 PM 49.5 °F - 10.8 °F 21% 29.94 in 10.0 mi WSW 3.5 mph - N/A   Clear
6:15 PM 48.7 °F - 11.5 °F 22% 29.94 in 10.0 mi WSW 3.5 mph - N/A   Clear
6:35 PM 47.7 °F - 12.2 °F 24% 29.95 in 10.0 mi West 4.6 mph - N/A   Clear
6:55 PM 47.3 °F - 12.4 °F 25% 29.97 in 10.0 mi West 4.6 mph - N/A   Clear
7:15 PM 46.4 °F 45.2 °F 13.6 °F 27% 29.97 in 10.0 mi West 3.5 mph - N/A   Clear
7:35 PM 45.9 °F 44.6 °F 14.0 °F 28% 29.98 in 10.0 mi West 3.5 mph - N/A   Clear
7:55 PM 45.9 °F 44.6 °F 13.8 °F 28% 29.99 in 10.0 mi WSW 3.5 mph - N/A   Clear
8:15 PM 44.2 °F - 15.1 °F 31% 30.00 in 10.0 mi Calm Calm - N/A   Clear
8:35 PM 43.3 °F - 15.3 °F 32% 30.01 in 10.0 mi Calm Calm - N/A   Clear
8:55 PM 41.7 °F - 16.5 °F 36% 30.01 in 10.0 mi Calm Calm - N/A   Clear
9:15 PM 40.6 °F - 17.1 °F 39% 30.02 in 10.0 mi Calm Calm - N/A   Clear
9:35 PM 40.1 °F - 17.6 °F 40% 30.03 in 10.0 mi Calm Calm - N/A   Clear
9:55 PM 38.8 °F - 18.5 °F 44% 30.03 in 10.0 mi Calm Calm - N/A   Clear
10:15 PM 36.9 °F - 18.7 °F 48% 30.03 in 10.0 mi Calm Calm - N/A   Clear
10:35 PM 35.8 °F - 19.2 °F 51% 30.04 in 10.0 mi Calm Calm - N/A   Clear
10:55 PM 35.2 °F - 19.6 °F 53% 30.05 in 10.0 mi Calm Calm - N/A   Clear
11:15 PM 34.5 °F - 19.2 °F 54% 30.06 in 10.0 mi Calm Calm - N/A   Clear
11:35 PM 34.5 °F 31.6 °F 18.9 °F 53% 30.06 in 10.0 mi NNW 3.5 mph - N/A   Clear
11:55 PM 37.8 °F - 18.1 °F 45% 30.07 in 10.0 mi Calm Calm - N/A   Clear